Weather History for Key West, FL

Change the Weather History Date:

Friday, October 25, 2013

  Actual Average Record
Temperature  
Mean Temperature 79 °F 79 °F  
Max Temperature 82 °F 83 °F 89 °F (1951)
Min Temperature 76 °F 75 °F 61 °F (1903)
Degree Days  
Heating Degree Days 0 0  
Month to date heating degree days 0 0  
Since 1 July heating degree days 0 0  
Cooling Degree Days 14 14  
Month to date cooling degree days 434 392  
Year to date cooling degree days 4296 4127  
Growing Degree Days 28 (Base 50)    
Moisture  
Dew Point 67 °F    
Average Humidity 68    
Maximum Humidity 74    
Minimum Humidity 62    
Precipitation  
Precipitation 0.00 in 0.14 in 3.69 in (1927)
Month to date precipitation 1.04 4.21  
Year to date precipitation 41.35 34.59  
Snow  
Snow 0.00 in - - ()
Month to date snowfall 0.0  
Since 1 July snowfall 0.0  
Since 1 September snowfall 0.0  
Snow Depth 0.00 in    
Sea Level Pressure  
Sea Level Pressure 30.10 in    
Wind  
Wind Speed 13 mph (NE)    
Max Wind Speed 22 mph    
Max Gust Speed 27 mph    
Visibility 10 miles    
Events      
T = Trace of Precipitation, MM = Missing Value Source: NWS Daily Summary

Daily Weather History Graph

Daily Weather History Graph

Search for Another Location

Airport:

Trip Planner

Search our weather history database for the weather conditions in past years. The results will help you decide how hot, cold, wet, or windy it might be!

Date:

Astronomy

Oct. 25, 2013 Rise Set
Actual Time 7:30 AM EDT 6:51 PM EDT
Civil Twilight 7:06 AM EDT 7:14 PM EDT
Nautical Twilight 6:40 AM EDT 7:41 PM EDT
Astronomical Twilight 6:13 AM EDT 8:08 PM EDT
Moon No Moon Rise 12:59 PM EDT (10/25)
Length of Visible Light 12h 08m
Length of Day
11h 21m
Waning Gibbous, 62% of the Moon is Illuminated
Oct 25
Waning Gibbous
Oct 26
Last Quarter
Nov 3
New
Nov 10
First Quarter
Nov 17
Full

Hourly Weather History & Observations

Time (EDT) Temp. Heat Index Dew Point Humidity Pressure Visibility Wind Dir Wind Speed Gust Speed Precip Events Conditions
12:53 AM 77.0 °F - 66.9 °F 71% 30.05 in 10.0 mi NE 13.8 mph 24.2 mph N/A   Clear
1:53 AM 77.0 °F - 66.9 °F 71% 30.06 in 10.0 mi NE 9.2 mph 23.0 mph N/A   Clear
2:53 AM 77.0 °F - 66.0 °F 69% 30.05 in 10.0 mi NE 12.7 mph 21.9 mph N/A   Clear
3:53 AM 77.0 °F - 66.9 °F 71% 30.06 in 10.0 mi NE 12.7 mph 18.4 mph N/A   Clear
4:53 AM 77.0 °F - 66.9 °F 71% 30.07 in 10.0 mi NE 10.4 mph 18.4 mph N/A   Scattered Clouds
5:53 AM 77.0 °F - 68.0 °F 74% 30.08 in 10.0 mi NNE 13.8 mph 19.6 mph N/A   Clear
6:53 AM 75.9 °F - 66.9 °F 74% 30.09 in 10.0 mi NE 12.7 mph - N/A   Clear
7:53 AM 77.0 °F - 66.0 °F 69% 30.11 in 10.0 mi NNE 13.8 mph 19.6 mph N/A   Clear
8:53 AM 78.1 °F - 66.9 °F 68% 30.12 in 10.0 mi NNE 12.7 mph 20.7 mph N/A   Clear
9:53 AM 79.0 °F - 66.9 °F 66% 30.13 in 10.0 mi NNE 16.1 mph 24.2 mph N/A   Clear
10:53 AM 79.0 °F - 66.0 °F 64% 30.14 in 10.0 mi NNE 17.3 mph 25.3 mph N/A   Clear
11:53 AM 81.0 °F 83.8 °F 68.0 °F 65% 30.13 in 10.0 mi NE 13.8 mph 25.3 mph N/A   Clear
12:53 PM 80.1 °F 82.9 °F 69.1 °F 69% 30.12 in 10.0 mi NNE 19.6 mph 25.3 mph N/A   Clear
1:53 PM 79.0 °F - 68.0 °F 69% 30.10 in 10.0 mi NNE 15.0 mph 23.0 mph N/A   Clear
2:53 PM 79.0 °F - 68.0 °F 69% 30.08 in 10.0 mi NNE 12.7 mph 21.9 mph N/A   Clear
3:53 PM 81.0 °F 83.3 °F 66.9 °F 62% 30.08 in 10.0 mi NE 12.7 mph 21.9 mph N/A   Clear
4:53 PM 81.0 °F 83.8 °F 68.0 °F 65% 30.09 in 10.0 mi NE 11.5 mph 19.6 mph N/A   Partly Cloudy
5:53 PM 80.1 °F 82.7 °F 68.0 °F 67% 30.08 in 10.0 mi ENE 10.4 mph 20.7 mph N/A   Mostly Cloudy
6:53 PM 79.0 °F - 66.0 °F 64% 30.09 in 10.0 mi ENE 13.8 mph - N/A   Clear
7:53 PM 78.1 °F - 64.9 °F 64% 30.09 in 10.0 mi ENE 10.4 mph 20.7 mph N/A   Clear
8:53 PM 78.1 °F - 64.0 °F 62% 30.11 in 10.0 mi NE 13.8 mph 23.0 mph N/A   Clear
9:53 PM 78.1 °F - 64.0 °F 62% 30.11 in 10.0 mi NE 11.5 mph 20.7 mph N/A   Clear
10:53 PM 77.0 °F - 64.0 °F 64% 30.12 in 10.0 mi NE 17.3 mph 25.3 mph N/A   Clear
11:53 PM 77.0 °F - 64.9 °F 66% 30.12 in 10.0 mi NE 15.0 mph 23.0 mph N/A   Clear